User: anonymous   Login
Location: Br�ttisellen
(47.4227°N, 8.6287°E)
Time: 13:40:10
(UTC+00:00)
Language:

USA 186 - Orbit

View from above orbital plane
View from above orbital plane
View from above satellite
View from above satellite

Ground track
Ground track

The orbit data is extracted from the following two-line orbital elements,

1 28888U 05042A   20191.11037916 0.00012000  00000-0  54104-4 0    00
2 28888  96.8842 228.2814 0128616 186.4074 173.5924 15.72447882    03
Epoch (UTC): 09 July 2020 02:38:56
Eccentricity: 0.0128616
inclination: 96.8842°
perigee height: 265 km
apogee height: 438 km
right ascension of ascending node: 228.2814°
argument of perigee: 186.4074°
revolutions per day: 15.72447882
mean anomaly at epoch: 173.5924°
orbit number at epoch: 0

The dashed part of the orbit path shows where the satellite is in the earth's shadow,  

DLR